Regional Weather Roundup
Issued by NWS Sterling, VA

Home | Current Version | Previous Version | Graphics & Text | Print | Product List | Glossary On
Versions: 1 2 3 4 5 6 7 8 9 10 11 12 13 14 15 16 17 18 19 20 21 22 23 24 25 26 27 28 29 30 31 32 33 34 35 36 37 38 39 40 41 42 43 44 45 46 47 48 49 50
000
ASUS41 KLWX 230910
RWRLWX

REGIONAL WEATHER ROUNDUP
NATIONAL WEATHER SERVICE BALTIMORE MD/WASHINGTON DC
500 AM EDT SUN APR 23 2017

Note: "FAIR" indicates few or no clouds below 12,000 feet
with no significant weather and/or obstructions to visibility.
 TC=TEMPERATURE CELSIUS

 * =Non NWS site. Station does not report precipitation (e.g. rain,
    snow, etc.), thunder, or fog.

DCZ001-MDZ009-015-VAZ040>042-051-053>054-231000-
WASHINGTON METRO

CITY           SKY/WX    TMP DP  RH WIND       PRES   REMARKS
WASHINGTON NAT CLOUDY    51  43  74 N12       30.08R
DULLES         CLOUDY    48  42  80 N10       30.06S
ANDREWS AFB    CLOUDY    47  44  88 N8        30.06R
FT BELVOIR     MOCLDY    50  45  82 N3        30.06R
QUANTICO       CLOUDY    53  47  79 NE13      30.06R
COLLEGE PARK*  CLOUDY    47  42  81 N3        30.07R
LEESBURG*      CLOUDY    46  45  93 NE7       30.08F
MANASSAS*        N/A     48  45  89 N9        30.08R

$$

MDZ006>007-011-014-231000-
BALTIMORE METRO

CITY           SKY/WX    TMP DP  RH WIND       PRES   REMARKS
BWI AIRPORT    CLOUDY    47  40  76 N5        30.07S
MD SCIENCE CTR   N/A     50  36  58 MISG      30.08S
MARTIN STATE   CLOUDY    46  43  87 NW5       30.09S
ANNAPOLIS      CLOUDY    53  43  68 NW8       30.06S

$$

MDZ012-015-019>023-231000-
MARYLAND EASTERN SHORE

CITY           SKY/WX    TMP DP  RH WIND       PRES   REMARKS
OCEAN CITY     CLOUDY    51  42  71 NE10      30.02S
SALISBURY      CLOUDY    49  46  90 N8        30.01S
CAMBRIDGE*     CLOUDY    50  43  76 N8G14     30.04S
EASTON*        MOCLDY    49  41  74 NE8       30.08S

$$

MDZ017>025-231000-
SOUTHERN MARYLAND

CITY           SKY/WX    TMP DP  RH WIND       PRES   REMARKS
PATUXENT RIVER CLOUDY    51  46  83 NE14      30.03R
ST INIGOES     CLOUDY    52  45  77 NE8       30.02R
LEONARDTOWN*   CLOUDY    50  43  76 NE3       30.06R

$$

MDZ003>005-231000-
NORTH CENTRAL MARYLAND

CITY           SKY/WX    TMP DP  RH WIND       PRES   REMARKS
FREDERICK*     CLOUDY    45  45 100 CALM      30.12R
HAGERSTOWN APT PTCLDY    44  39  82 CALM      30.09R
WESTMINSTER*   CLOUDY    43  39  87 N3        30.08R

$$

MDZ501>502-231000-
WESTERN MARYLAND

CITY           SKY/WX    TMP DP  RH WIND       PRES   REMARKS
OAKLAND*       CLOUDY    36  32  87 E10G16    30.04S WCI  28
CUMBERLAND*    CLOUDY    43  43 100 CALM      30.14R VSB 1/4

$$

VAZ025>031-231000-
SHENANDOAH VALLEY

CITY           SKY/WX    TMP DP  RH WIND       PRES   REMARKS
WINCHESTER*    CLOUDY    43  41  93 N3        30.08S
FRONT ROYAL*   CLOUDY    43  43 100 CALM      30.08R VSB 1/4
LURAY*         FOG       45  45 100 CALM      30.06S VSB<1/4
NEW MARKET*    MOCLDY    44  43  96 CALM      30.06R
STAUNTON*      CLOUDY    47  45  93 CALM      30.07S
WAYNESBORO*    CLOUDY    46  46 100 CALM      30.05S

$$

WVZ021-048>050-054>055-231000-
EASTERN WEST VIRGINIA PANHANDLE

CITY           SKY/WX    TMP DP  RH WIND       PRES   REMARKS
MARTINSBURG    CLOUDY    44  39  82 N5        30.09R
PETERSBURG*    FOG       45  45  99 E3        30.09R VSB 1/2

$$

VAZ036>039-050-231000-
CENTRAL FOOTHILLS

CITY           SKY/WX    TMP DP  RH WIND       PRES   REMARKS
CHARLOTTESVILL CLOUDY    51  49  92 CALM      30.05R
CULPEPER*      CLOUDY    49  46  89 N7        30.08R
ORANGE*        CLOUDY    50  45  81 CALM      30.05S
GORDONSVILLE*  CLOUDY    49  47  95 NE3       30.05R
WARRENTON*     CLOUDY    49  43  79 NE3       30.06S

$$

VAZ055>057-231000-
NORTH AND CENTRAL PIEDMONT

CITY           SKY/WX    TMP DP  RH WIND       PRES   REMARKS
FREDERICKSBRG* LGT RAIN  50  50 100 N5        30.04F
STAFFORD*      LGT RAIN  49  47  96 N6        30.10S

$$

NCZ024-NYZ072-PAZ021-071-VAZ022-071-231000-
OTHER REGIONAL OBSERVATIONS

CITY           SKY/WX    TMP DP  RH WIND       PRES   REMARKS
NEW YORK CITY  CLOUDY    47  36  65 N8        30.08R
PHILADELPHIA   CLOUDY    47  36  65 N9        30.07R
PITTSBURGH     CLEAR     40  33  76 NE5       30.08R
ROANOKE        CLOUDY    50  47  89 NE3       30.05R
RICHMOND       LGT RAIN  51  51 100 N8        30.04R
RALEIGH        CLOUDY    55  53  93 NE7       29.97S

$$

ANZ530>537-231000-
MARINE OBSERVATIONS

STATION/POSITION TIME  TEMP    WIND        PRES
                       AIR SEA DIR/SP/G
                 (UTC) (F)     (DEG/KT/KT) (MB)
THOMAS PT LIGHT  0900   51 59   20/ 14/ 16   N/A
BALT KEY BRIDGE  0842   49      20/  9/ 11 1018.0F
COVE POINT       0842   52      50/ 17/ 21 1017.5S
LEWISETTA        0842   54 64   50/  7/ 11 1016.5R
SOLOMONS ISLAND  0842   53 61   30/ 11/ 16   N/A
PINEY POINT      0848           50/  6/  8   N/A

$$




USA.gov is the U.S. government's official web portal to all federal, state and local government web resources and services.